Theta_e
321 315 309 310 298 294 291 295 300 304 303 306 308 306 305 300 308 303 303 321 322 323 327 334 342 343 344 344 342 344 344 344 344 343 343 344 344 344 344 344 343 342 341 340 339 338 336 338 341
318 314 311 304 294 287 290 294 299 305 306 307 304 302 300 297 299 299 301 315 318 320 322 328 337 339 340 340 341 341 340 340 341 342 342 341 340 340 341 342 342 343 342 342 343 342 339 339 340
308 313 306 302 293 289 290 296 300 304 306 305 303 300 297 296 297 299 301 313 314 315 319 325 333 334 334 334 335 334 334 336 335 335 335 334 334 334 335 335 336 338 340 342 342 342 342 341 341
304 309 306 299 297 299 294 297 304 304 306 305 303 297 295 297 299 301 304 311 310 312 316 324 328 328 328 328 328 327 326 325 324 323 323 323 323 323 324 325 325 326 328 331 333 336 336 337 339
306 305 299 297 298 301 303 304 306 306 306 306 303 296 294 297 300 302 303 307 306 307 311 315 323 323 323 323 322 322 321 320 319 318 318 318 318 318 318 319 320 320 321 322 323 324 325 328 331
301 304 296 295 299 303 305 307 307 305 305 306 299 296 294 297 299 299 302 301 304 304 308 311 318 320 319 318 318 318 318 317 316 315 315 315 315 315 315 315 315 317 318 319 319 319 320 321 321
299 298 296 296 298 301 303 303 304 304 303 303 301 296 292 294 298 299 297 298 300 302 301 304 308 314 317 316 315 315 314 314 313 313 313 314 314 313 313 313 314 316 317 317 317 318 317 318 318
301 300 295 297 297 299 305 302 302 303 302 300 301 295 292 294 297 296 295 296 296 298 300 299 303 305 304 306 314 314 314 312 311 312 313 313 311 312 312 312 314 314 314 315 315 316 315 315 315
304 296 293 295 297 300 300 298 295 295 296 295 295 295 297 298 295 292 291 292 294 297 297 297 300 301 300 300 306 311 312 312 313 309 311 306 302 303 304 310 312 312 312 313 313 313 313 312 310
300 294 296 299 294 294 296 296 295 294 292 292 291 293 295 296 293 292 290 291 292 293 295 296 296 297 298 303 300 300 303 302 302 301 301 302 301 302 304 304 308 309 310 310 311 311 310 306 301
298 295 297 294 293 292 293 295 294 294 291 294 293 292 293 292 292 292 291 292 294 293 294 295 296 296 296 297 297 297 298 297 299 299 300 300 300 299 299 298 298 298 304 300 302 301 301 300 300
292 296 297 296 293 292 292 290 293 293 296 297 296 295 293 292 292 292 291 291 292 292 294 295 295 295 296 295 296 296 297 295 297 297 300 298 297 297 297 297 297 297 298 298 298 298 299 299 300
294 294 292 291 291 290 290 290 291 291 295 290 294 294 293 293 293 293 293 293 292 292 293 294 294 294 295 295 295 295 295 296 296 296 299 298 297 296 297 296 296 296 297 297 297 297 298 298 299
293 292 292 291 291 290 288 289 288 293 295 293 292 292 293 293 293 291 291 293 292 294 294 295 294 294 295 294 294 294 294 295 295 296 297 299 298 296 296 296 296 296 297 297 297 297 297 297 298
292 289 290 290 289 288 286 289 286 293 292 293 294 291 293 294 293 293 294 294 293 295 296 294 295 294 294 294 294 294 295 296 294 295 297 298 299 297 296 295 295 295 296 297 296 296 297 296 297
288 288 286 290 288 287 289 288 293 288 289 290 290 289 289 292 293 295 295 294 294 295 295 296 298 295 293 293 293 294 295 294 294 295 296 298 299 298 295 295 294 295 296 296 295 295 294 294 294
285 282 284 288 288 286 286 286 292 286 286 287 287 286 288 288 290 294 293 293 294 295 296 296 295 294 294 293 293 293 293 294 294 295 295 298 299 298 295 295 295 296 295 294 294 293 293 292 292
281 281 284 284 286 284 283 283 288 290 286 285 286 286 286 288 291 292 293 294 294 296 296 296 295 294 293 293 292 292 293 293 294 294 296 297 297 297 295 294 294 295 294 293 293 292 292 291 290
283 282 281 283 285 283 282 283 287 289 285 285 287 287 287 288 292 290 293 293 294 294 294 294 293 293 293 291 290 291 291 293 293 294 297 297 297 297 295 294 294 294 293 292 292 292 290 289 290
282 280 280 283 284 283 282 282 287 289 288 288 289 289 289 290 287 290 290 291 293 293 294 294 294 292 294 293 292 292 291 292 293 295 296 297 296 296 295 294 293 293 291 291 290 290 289 289 289
279 280 279 281 284 282 280 280 283 287 287 289 291 292 291 291 289 288 290 291 293 293 293 294 294 293 294 293 293 292 292 292 292 293 294 295 296 296 295 294 293 292 291 289 289 289 288 286 288
277 281 282 281 279 275 280 275 281 287 288 288 289 287 289 289 289 290 290 289 291 293 292 294 294 294 294 294 293 291 290 290 291 292 293 294 295 294 295 294 292 291 290 289 288 290 288 287 285
278 281 280 279 277 275 275 275 278 284 286 289 288 288 288 288 288 289 290 291 292 292 292 294 294 294 294 294 294 291 290 291 291 291 292 292 293 294 293 293 291 290 289 288 288 287 287 287 286
282 280 280 278 276 270 276 277 275 283 286 288 287 288 288 288 287 287 289 291 291 291 292 293 293 293 293 294 292 291 290 291 290 290 290 290 291 291 291 292 290 289 288 288 288 287 287 286 286
279 276 272 270 267 271 276 275 279 284 287 288 288 289 288 287 287 287 287 288 288 290 291 292 293 292 293 293 292 292 291 291 290 290 289 289 289 289 289 289 289 288 288 288 288 287 286 286 285
277 276 273 268 271 275 276 275 281 287 289 289 289 289 288 287 287 287 287 289 290 291 291 292 292 292 292 293 292 292 291 291 290 290 289 289 288 288 289 289 288 288 288 288 288 287 286 286 286
277 275 278 274 269 271 275 278 284 287 286 286 286 286 287 288 288 288 288 287 289 290 292 293 292 293 292 292 292 291 291 290 290 290 289 289 288 289 289 288 288 288 288 287 287 286 285 286 286
277 279 274 273 266 266 275 275 278 283 285 285 285 285 285 286 286 287 287 287 289 291 292 293 293 292 292 292 291 291 291 290 290 289 288 288 288 289 288 288 287 287 287 287 286 285 286 285 285
275 274 274 274 275 271 271 276 282 284 286 285 285 286 286 286 286 286 287 287 288 289 290 291 290 290 290 291 290 289 290 290 289 288 288 288 288 288 287 287 287 287 287 286 285 285 284 282 283
276 277 277 272 271 274 275 277 284 284 284 285 286 287 287 286 286 286 286 287 286 287 288 289 290 290 291 291 290 290 290 290 289 288 288 288 287 287 287 287 287 287 286 285 284 282 282 282 285
Wind_Speed
10 8 1 5 4 5 4 7 2 3 2 2 1 3 7 4 5 5 3 9 9 7 5 5 9 10 11 10 9 9 8 7 7 6 6 8 8 9 7 6 5 5 5 5 5 6 6 6 7
5 5 4 3 5 1 7 5 7 6 4 7 6 2 4 3 4 5 7 8 10 8 5 5 7 9 10 11 10 9 8 7 6 6 9 11 9 8 9 9 9 9 6 7 7 7 6 4 4
5 0 3 2 3 6 6 3 5 2 5 3 4 4 4 6 2 9 4 11 9 7 5 5 9 11 10 9 9 9 9 9 9 8 9 8 9 9 9 9 9 10 11 11 10 10 10 8 6
3 4 3 2 8 8 7 2 3 5 2 1 5 5 2 1 9 8 9 10 10 7 6 7 10 10 10 10 10 9 9 9 9 8 7 7 7 8 8 8 8 8 8 7 8 10 9 10 10
3 2 1 4 8 7 5 3 9 8 5 5 5 5 4 2 4 10 9 9 11 6 6 5 10 10 10 10 9 9 9 9 8 7 7 7 7 8 7 7 9 9 9 9 10 10 10 10 11
1 3 1 5 8 7 4 9 6 4 4 5 4 9 5 4 8 7 9 8 8 9 6 5 7 9 9 9 9 9 9 9 8 7 8 7 7 7 7 7 8 9 9 10 11 11 11 12 13
5 3 6 6 6 9 5 7 6 7 6 6 8 8 1 5 8 8 9 9 8 7 7 5 5 7 9 10 9 9 8 8 7 8 7 7 6 7 8 8 10 10 10 10 10 10 10 12 14
4 4 4 5 7 14 6 6 3 8 7 2 6 7 6 9 10 8 8 8 8 7 7 6 5 6 6 5 8 8 8 7 6 6 7 8 8 9 9 9 10 10 10 10 9 11 12 12 13
4 2 5 6 6 7 2 4 1 1 6 1 1 5 3 16 10 8 5 4 4 5 7 7 7 6 6 6 5 7 6 6 6 5 7 6 4 5 6 8 9 10 10 10 10 11 12 12 11
5 5 9 5 2 4 5 3 6 5 3 3 1 3 5 16 13 14 9 9 7 8 7 7 7 7 6 4 5 4 3 3 3 3 3 3 4 3 4 5 8 9 9 10 11 11 12 9 4
5 6 3 2 1 2 4 3 3 6 5 9 13 8 10 8 12 14 10 11 14 8 6 8 7 7 6 4 3 2 2 2 2 3 3 3 2 3 3 3 3 4 6 4 5 5 4 6 4
3 4 3 1 1 3 3 6 5 7 7 4 9 17 14 16 16 16 14 11 10 8 9 9 8 7 7 4 4 4 3 3 2 2 4 3 2 3 3 3 4 3 3 5 4 3 5 6 6
5 3 2 4 4 6 3 8 8 7 10 2 7 12 18 16 15 12 12 10 9 9 9 10 9 8 6 6 4 4 4 3 4 2 3 3 2 1 2 2 3 3 4 3 4 4 4 5 6
5 4 6 6 6 4 5 5 2 8 14 10 7 14 15 16 19 9 9 13 12 12 12 11 10 9 7 6 6 5 4 4 3 3 4 4 3 2 0 1 2 3 3 3 4 4 4 4 4
2 3 5 8 5 5 3 11 15 12 6 12 13 12 16 19 12 17 19 16 15 13 14 13 12 8 8 8 6 4 4 4 4 3 4 5 4 3 2 1 2 3 4 5 4 4 4 4 4
4 1 2 1 8 3 5 16 4 0 10 12 12 10 11 14 15 18 13 14 12 13 16 13 11 10 9 7 6 4 4 4 4 3 3 4 4 3 3 1 2 2 3 3 3 3 4 4 4
1 6 5 5 7 4 6 11 7 4 5 10 10 9 10 10 11 13 12 14 15 16 16 14 10 12 9 7 5 5 5 4 4 3 3 5 5 4 3 1 2 3 3 3 4 3 3 4 6
6 6 6 5 6 4 5 23 17 14 6 11 10 10 11 13 20 15 16 14 14 15 15 14 11 10 9 5 4 3 2 2 3 4 4 5 3 5 3 1 2 3 3 4 4 4 2 3 4
3 3 4 3 3 3 10 19 19 15 9 12 16 15 15 17 15 13 14 13 13 14 14 15 13 10 8 3 4 2 3 2 2 3 5 5 4 4 3 2 2 2 3 3 4 3 5 3 4
4 4 6 4 2 3 6 19 19 17 15 17 20 18 20 16 11 13 13 14 16 17 16 14 15 12 9 6 4 3 4 3 2 3 4 5 5 4 3 4 2 0 0 3 3 4 3 3 4
4 6 4 5 3 4 6 13 8 8 9 11 16 17 15 19 17 14 16 18 16 18 16 15 15 13 11 8 4 3 4 2 1 2 3 3 4 4 3 4 4 2 1 1 2 2 2 3 2
5 4 2 2 1 5 1 10 8 8 12 7 10 10 14 13 10 14 17 14 16 17 13 14 15 14 10 11 7 6 5 5 4 4 3 4 4 3 4 4 4 3 2 1 2 1 1 1 4
5 2 3 2 2 4 2 4 11 5 9 12 8 10 10 9 10 14 17 19 18 15 16 15 15 14 11 12 10 7 5 4 3 3 5 4 2 3 3 4 4 4 2 2 3 3 2 2 3
5 5 7 5 3 3 9 8 5 6 7 5 3 5 6 8 8 8 9 13 14 12 14 14 15 14 12 13 11 11 10 7 5 4 4 4 3 3 3 4 4 4 3 2 2 3 3 4 4
3 6 1 4 2 10 3 5 6 11 10 6 3 7 6 6 7 8 10 11 10 14 15 13 15 13 12 13 12 11 9 9 9 7 5 5 3 3 4 4 4 3 2 2 2 3 4 4 4
7 7 7 9 6 4 2 10 10 11 9 9 8 6 5 6 7 8 9 11 14 15 15 15 14 14 13 14 13 10 9 6 5 6 4 4 4 4 4 4 4 2 1 1 2 3 4 5 4
7 7 3 5 1 4 6 9 11 10 11 5 7 5 8 8 7 8 6 8 10 13 17 19 17 15 14 14 11 11 9 8 7 7 6 4 4 3 5 5 4 2 2 2 3 3 4 4 5
5 1 3 2 2 5 6 7 9 5 6 6 6 10 8 6 6 6 7 8 9 12 14 12 13 15 12 12 11 10 10 8 7 6 7 6 5 5 5 5 4 3 2 3 3 3 4 5 5
5 4 2 3 5 6 2 9 9 8 7 9 11 8 8 8 8 7 7 6 5 2 6 9 8 9 9 11 9 8 8 7 7 7 6 6 6 6 6 6 4 3 2 3 3 4 5 5 8
2 6 7 7 7 5 3 13 2 5 2 6 3 6 6 7 8 7 7 5 5 7 6 8 7 9 11 10 9 9 9 9 8 7 7 7 7 6 6 6 5 4 3 2 3 5 5 7 10
Wind_Direction
316 315 90 43 47 63 265 255 283 171 182 163 128 179 158 58 155 201 254 121 119 117 106 77 102 99 98 105 109 100 96 91 82 71 57 61 46 41 2 268 268 271 279 298 311 319 326 341 343
314 331 31 86 100 55 266 239 228 206 148 132 97 94 42 131 122 151 131 146 124 120 96 86 89 111 101 93 90 92 89 76 64 73 64 51 47 43 35 35 29 24 337 300 303 301 304 314 313
305 38 69 128 157 197 227 227 212 194 175 162 113 73 144 166 52 155 166 133 115 110 106 109 117 115 114 111 106 97 91 83 72 47 58 59 58 52 49 41 30 19 16 11 3 5 352 323 304
7 6 20 133 236 247 210 224 188 163 233 166 143 109 71 292 152 174 139 126 112 117 118 123 126 124 124 118 111 103 91 85 81 75 75 72 68 61 54 49 39 32 26 15 3 5 348 336 342
34 61 239 237 245 255 253 242 171 189 183 173 170 190 156 333 139 139 131 128 126 133 129 129 132 128 123 115 107 101 99 95 94 91 84 76 67 60 54 48 30 23 14 8 2 356 352 345 340
357 103 181 230 242 263 263 192 182 213 196 176 84 138 192 146 136 160 133 137 139 142 141 131 128 126 124 121 117 113 115 106 90 88 84 75 59 57 48 37 26 25 17 9 4 358 355 349 343
161 130 225 230 255 277 236 143 182 191 172 221 151 140 176 189 187 150 135 131 137 136 132 140 136 132 132 132 128 129 116 107 96 79 68 70 64 48 38 24 21 23 19 11 11 7 1 352 345
154 138 249 228 230 269 225 188 207 168 214 92 143 187 211 204 172 131 125 136 144 149 146 156 157 155 148 158 150 137 130 117 98 73 66 57 50 42 33 28 15 25 14 12 11 4 359 358 357
149 170 232 230 198 244 227 180 33 199 127 164 117 159 281 142 134 121 121 128 144 159 169 171 175 185 179 174 178 160 152 141 107 72 64 51 46 32 34 16 22 12 9 8 6 358 360 355 351
161 182 220 212 217 261 284 215 177 151 155 206 170 10 108 142 155 158 168 171 180 184 188 179 180 188 184 193 165 166 169 144 133 111 81 65 56 31 36 15 14 7 4 356 358 357 353 353 338
191 217 205 266 283 274 272 280 219 155 226 212 198 167 157 159 172 173 182 182 186 181 176 185 186 184 177 166 171 162 162 131 135 137 122 83 61 26 13 5 1 356 3 345 354 352 337 329 317
232 251 244 268 267 307 268 322 281 203 227 248 199 166 166 177 185 185 188 187 181 181 186 188 190 181 186 170 170 169 154 152 157 180 134 107 59 23 0 6 347 348 350 340 352 336 325 328 327
220 261 256 239 247 249 287 249 235 253 247 193 150 167 182 186 193 198 191 188 182 189 188 191 181 185 181 182 175 168 175 164 170 154 148 133 124 73 9 343 342 343 343 343 332 329 324 323 320
185 211 256 239 238 232 232 255 142 223 228 226 180 192 194 194 196 181 189 197 191 190 191 188 188 184 173 180 180 182 169 174 153 161 177 161 154 138 134 330 340 337 331 319 324 325 330 319 315
171 253 283 220 208 239 151 280 231 227 198 219 217 205 202 206 186 197 200 199 190 193 186 189 186 181 180 182 185 175 187 160 169 174 173 166 153 154 138 9 351 324 323 326 342 335 334 317 314
289 117 266 199 147 203 143 264 226 42 189 229 231 216 216 214 207 205 197 196 186 181 188 185 184 180 180 178 178 182 182 167 174 177 165 167 153 149 119 85 315 318 336 342 345 341 323 316 318
191 275 219 301 200 138 170 268 262 102 183 244 241 235 218 227 223 214 199 193 185 185 182 184 178 177 180 174 168 178 174 174 184 161 163 179 159 141 128 100 328 4 360 358 349 330 335 322 321
204 219 251 232 206 197 209 263 268 269 248 243 244 236 231 221 224 207 206 196 185 186 184 180 178 175 171 153 143 147 160 189 179 179 173 177 168 143 121 81 23 19 7 355 346 315 310 282 303
146 221 262 277 203 211 228 258 261 272 250 251 240 232 231 229 222 203 202 191 187 184 182 181 170 179 157 139 144 147 188 191 183 190 168 178 162 148 141 120 46 18 23 345 331 317 323 327 331
230 249 259 259 145 206 293 273 274 265 248 231 240 230 228 221 204 196 191 186 189 187 191 180 180 174 174 159 161 162 155 189 171 179 162 185 156 178 172 142 145 108 19 352 351 17 322 310 20
228 206 218 235 312 227 308 273 257 259 249 252 242 241 225 218 207 195 194 192 189 191 189 183 177 175 178 160 129 98 81 65 124 196 145 194 166 188 177 158 160 180 158 336 335 314 6 311 324
247 206 159 169 115 247 166 286 281 276 277 253 247 223 228 215 207 197 192 187 188 191 181 178 178 177 178 163 163 167 167 167 204 172 156 163 180 199 181 177 167 171 165 266 273 269 243 225 285
226 117 141 108 181 357 236 282 271 271 277 263 271 237 223 213 197 193 195 192 190 174 179 182 177 180 174 174 175 172 172 171 156 152 157 152 187 200 190 174 160 170 177 223 246 280 268 227 245
131 69 42 47 67 297 198 187 236 227 237 286 294 303 232 216 213 200 196 186 181 172 177 175 177 183 174 176 177 179 184 174 170 175 183 170 194 211 206 172 172 185 190 216 260 268 262 259 248
96 99 336 345 354 231 151 183 259 267 248 231 255 271 246 209 184 174 171 168 162 171 174 176 177 185 178 180 184 184 182 178 187 184 184 167 187 213 218 190 197 197 189 243 271 291 275 267 260
184 172 168 204 204 251 36 235 254 242 282 253 258 235 195 189 185 187 185 179 177 176 178 180 181 187 182 185 189 183 176 181 184 181 180 180 188 203 204 207 203 209 241 294 293 273 262 261 255
194 206 199 102 65 37 225 280 295 259 255 258 233 187 214 212 193 197 187 180 174 178 183 185 185 191 186 187 184 187 178 174 182 185 174 172 182 199 212 206 216 222 261 285 288 273 278 273 272
176 223 110 355 182 247 273 265 235 274 246 225 233 227 233 244 227 210 196 190 194 192 187 184 188 190 187 184 185 185 184 176 169 167 179 181 185 199 207 217 218 229 255 282 289 286 274 279 282
155 205 199 134 164 179 272 259 220 235 208 212 232 232 221 223 220 217 222 215 206 164 171 180 176 173 174 184 181 172 174 168 167 176 179 181 178 193 207 213 215 231 268 304 302 284 283 283 287
243 189 164 138 226 231 178 255 275 263 179 207 257 239 226 227 236 225 215 205 201 206 189 194 188 189 193 185 173 176 166 171 175 180 180 177 188 195 205 207 210 224 248 292 297 298 290 286 301